| time (UTC) | temp C | wind direction | speed KPH | gust KPH | rain 1hr cm | rain 24hr cm | rain mn cm | humidity % | barometer mb |
| 20260508203048 | 9 | 339 | 4.8 | 14.5 | 0.00 | 0.66 | 0.03 | 73 | 1002.5 |
| 20260508201547 | 8 | 287 | 4.8 | 12.9 | 0.00 | 0.66 | 0.03 | 75 | 1002.2 |
| 20260508200047 | 8 | 297 | 4.8 | 11.3 | 0.00 | 1.65 | 0.03 | 74 | 1001.9 |
| 20260508194614 | 8 | 283 | 6.4 | 12.9 | 0.00 | 1.65 | 0.03 | 75 | 1001.7 |
| 20260508193046 | 8 | 289 | 4.8 | 12.9 | 0.00 | 1.65 | 0.03 | 75 | 1001.6 |
| 20260508191546 | 10 | 326 | 8.0 | 17.7 | 0.00 | 1.65 | 0.03 | 72 | 1001.5 |
| 20260508190044 | 10 | 341 | 8.0 | 16.1 | 0.00 | 2.01 | 0.03 | 69 | 1001.3 |
| 20260508184544 | 11 | 7 | 9.7 | 16.1 | 0.00 | 2.01 | 0.03 | 64 | 1001.2 |
| 20260508183142 | 12 | 335 | 8.0 | 16.1 | 0.00 | 2.01 | 0.03 | 65 | 1001.1 |
| 20260508181639 | 12 | 341 | 8.0 | 17.7 | 0.00 | 2.01 | 0.03 | 61 | 1001.4 |
| 20260508180037 | 12 | 63 | 8.0 | 19.3 | 0.00 | 2.01 | 0.03 | 61 | 1001.6 |
| 20260508174542 | 11 | 353 | 8.0 | 14.5 | 0.00 | 2.01 | 0.03 | 66 | 1001.5 |
| 20260508173038 | 10 | 305 | 4.8 | 11.3 | 0.00 | 2.01 | 0.03 | 73 | 1001.7 |
| 20260508171533 | 10 | 274 | 3.2 | 11.3 | 0.00 | 2.01 | 0.03 | 75 | 1002.0 |
| 20260508170030 | 9 | 279 | 3.2 | 9.7 | 0.00 | 2.01 | 0.03 | 77 | 1002.1 |
| 20260508164527 | 8 | 273 | 3.2 | 11.3 | 0.00 | 2.01 | 0.03 | 77 | 1002.0 |
| 20260508163027 | 8 | 289 | 3.2 | 8.0 | 0.00 | 2.01 | 0.03 | 77 | 1001.8 |
| 20260508161530 | 9 | 325 | 6.4 | 12.9 | 0.00 | 2.01 | 0.03 | 76 | 1001.9 |
| 20260508160029 | 8 | 283 | 3.2 | 9.7 | 0.00 | 2.01 | 0.03 | 76 | 1002.0 |
| 20260508154529 | 9 | 317 | 4.8 | 14.5 | 0.00 | 2.01 | 0.03 | 75 | 1001.9 |
| 20260508153034 | 9 | 343 | 9.7 | 14.5 | 0.00 | 2.01 | 0.03 | 72 | 1002.0 |
| 20260508151524 | 10 | 325 | 4.8 | 14.5 | 0.00 | 2.01 | 0.03 | 73 | 1001.9 |
| 20260508150022 | 10 | 352 | 6.4 | 16.1 | 0.00 | 2.03 | 0.03 | 75 | 1002.2 |
| 20260508144521 | 9 | 324 | 8.0 | 16.1 | 0.00 | 2.03 | 0.03 | 77 | 1002.1 |
| 20260508143024 | 9 | 309 | 8.0 | 16.1 | 0.03 | 2.03 | 0.03 | 78 | 1002.2 |
| 20260508141520 | 9 | 338 | 11.3 | 20.9 | 0.03 | 2.03 | 0.03 | 78 | 1002.3 |
| 20260508140018 | 9 | 311 | 6.4 | 16.1 | 0.03 | 2.03 | 0.03 | 79 | 1002.5 |
| 20260508134518 | 10 | 327 | 6.4 | 14.5 | 0.03 | 2.03 | 0.03 | 79 | 1002.7 |
| 20260508133018 | 9 | 283 | 6.4 | 16.1 | 0.00 | 2.01 | 0.00 | 80 | 1003.0 |
| 20260508131516 | 9 | 7 | 8.0 | 16.1 | 0.00 | 2.01 | 0.00 | 79 | 1002.6 |
| 20260508130016 | 9 | 337 | 8.0 | 16.1 | 0.00 | 2.01 | 0.00 | 81 | 1002.4 |
| 20260508124513 | 8 | 325 | 8.0 | 14.5 | 0.00 | 2.01 | 0.00 | 85 | 1002.3 |
| 20260508123012 | 7 | 281 | 3.2 | 9.7 | 0.00 | 2.01 | 0.00 | 90 | 1002.4 |
| 20260508121510 | 6 | 279 | 1.6 | 6.4 | 0.00 | 2.01 | 0.00 | 91 | 1002.7 |
| 20260508120009 | 6 | 292 | 3.2 | 11.3 | 0.00 | 2.01 | 0.00 | 92 | 1002.8 |
| 20260508114512 | 5 | 269 | 3.2 | 9.7 | 0.00 | 2.01 | 0.00 | 92 | 1002.9 |
| 20260508113013 | 5 | 337 | 3.2 | 6.4 | 0.00 | 2.01 | 0.00 | 92 | 1002.7 |
| 20260508111511 | 5 | 337 | 1.6 | 8.0 | 0.00 | 2.01 | 0.00 | 92 | 1002.7 |
| 20260508110007 | 4 | 337 | 3.2 | 6.4 | 0.00 | 2.01 | 0.00 | 92 | 1002.7 |
| 20260508104506 | 4 | 335 | 0.0 | 3.2 | 0.00 | 2.01 | 0.00 | 92 | 1003.1 |
| 20260508103015 | 4 | 335 | 1.6 | 4.8 | 0.00 | 2.01 | 0.00 | 92 | 1003.4 |
| 20260508101506 | 4 | 341 | 1.6 | 4.8 | 0.00 | 2.01 | 0.00 | 92 | 1003.0 |
| 20260508100003 | 4 | 343 | 0.0 | 0.0 | 0.00 | 2.01 | 0.00 | 92 | 1003.0 |
| 20260508094500 | 4 | 343 | 0.0 | 0.0 | 0.00 | 2.01 | 0.00 | 92 | 1002.3 |
| 20260508093100 | 4 | 343 | 0.0 | 0.0 | 0.00 | 2.01 | 0.00 | 92 | 1002.5 |
| 20260508091602 | 4 | 343 | 0.0 | 0.0 | 0.00 | 2.01 | 0.00 | 92 | 1002.5 |
| 20260508084556 | 5 | 343 | 1.6 | 3.2 | 0.00 | 2.08 | 0.00 | 92 | 1002.5 |
| 20260508083100 | 5 | 343 | 0.0 | 4.8 | 0.00 | 2.08 | 0.00 | 91 | 1002.3 |
| 20260508081608 | 5 | 343 | 1.6 | 4.8 | 0.00 | 2.08 | 0.00 | 91 | 1002.3 |
| 20260508080048 | 5 | 356 | 1.6 | 6.4 | 0.00 | 2.13 | 0.00 | 91 | 1002.1 |
| 20260508074547 | 6 | 345 | 4.8 | 9.7 | 0.00 | 2.13 | 0.00 | 92 | 1002.0 |
| 20260508073045 | 6 | 345 | 4.8 | 12.9 | 0.00 | 2.13 | 0.00 | 92 | 1002.2 |
| 20260508071544 | 6 | 347 | 4.8 | 12.9 | 0.00 | 2.13 | 0.00 | 92 | 1002.3 |
| 20260508070045 | 6 | 327 | 3.2 | 14.5 | 0.00 | 2.13 | 0.00 | 92 | 1002.0 |
| 20260508064536 | 7 | 356 | 6.4 | 12.9 | 0.00 | 2.13 | 0.00 | 91 | 1002.0 |
| 20260508063033 | 7 | 358 | 4.8 | 12.9 | 0.00 | 2.13 | 0.00 | 92 | 1002.1 |
| 20260508061532 | 8 | 38 | 9.7 | 14.5 | 0.00 | 2.13 | 0.00 | 92 | 1002.1 |
| 20260508060029 | 8 | 351 | 3.2 | 6.4 | 0.00 | 2.13 | 0.00 | 92 | 1001.7 |
| 20260508054525 | 8 | 350 | 3.2 | 6.4 | 0.00 | 2.13 | 0.00 | 92 | 1001.7 |
| 20260508053030 | 9 | 350 | 3.2 | 9.7 | 0.00 | 2.13 | 0.00 | 92 | 1001.7 |
| 20260508051528 | 9 | 258 | 1.6 | 4.8 | 0.00 | 2.13 | 0.00 | 92 | 1001.4 |
| 20260508050019 | 9 | 257 | 1.6 | 6.4 | 0.00 | 2.13 | 0.00 | 92 | 1001.4 |
| 20260508044519 | 9 | 224 | 0.0 | 0.0 | 0.00 | 2.13 | 0.00 | 92 | 1001.7 |
| 20260508043019 | 9 | 224 | 0.0 | 0.0 | 0.00 | 2.13 | 0.00 | 92 | 1001.7 |
| 20260508041516 | 9 | 224 | 0.0 | 0.0 | 0.00 | 2.13 | 0.00 | 92 | 1001.8 |
| 20260508040014 | 9 | 224 | 0.0 | 0.0 | 0.00 | 2.13 | 0.00 | 92 | 1001.9 |
| 20260508034509 | 9 | 224 | 0.0 | 1.6 | 0.00 | 2.13 | 0.00 | 92 | 1002.1 |
| 20260508033006 | 9 | 224 | 0.0 | 3.2 | 0.00 | 2.13 | 0.00 | 92 | 1002.2 |
| 20260508031600 | 9 | 224 | 1.6 | 4.8 | 0.00 | 2.13 | 0.00 | 92 | 1002.2 |
| 20260508024600 | 9 | 223 | 0.0 | 4.8 | 0.00 | 2.13 | 2.13 | 92 | 1002.2 |
| 20260508023056 | 9 | 223 | 0.0 | 8.0 | 0.00 | 2.13 | 2.13 | 92 | 1001.8 |
| 20260508021555 | 9 | 222 | 0.0 | 6.4 | 0.00 | 2.13 | 2.13 | 92 | 1001.9 |
| 20260508020055 | 9 | 223 | 1.6 | 6.4 | 0.00 | 2.13 | 2.13 | 92 | 1002.1 |
| 20260508014554 | 9 | 223 | 1.6 | 9.7 | 0.00 | 2.13 | 2.13 | 92 | 1002.2 |
| 20260508013053 | 9 | 244 | 1.6 | 8.0 | 0.00 | 2.13 | 2.13 | 92 | 1001.9 |
| 20260508011555 | 8 | 214 | 1.6 | 8.0 | 0.00 | 2.13 | 2.13 | 92 | 1002.1 |
| 20260508010051 | 8 | 183 | 3.2 | 12.9 | 0.00 | 2.13 | 2.13 | 91 | 1002.2 |
| 20260508004554 | 9 | 184 | 4.8 | 9.7 | 0.00 | 2.13 | 2.13 | 91 | 1002.4 |
| 20260508003050 | 9 | 183 | 1.6 | 8.0 | 0.00 | 2.13 | 2.13 | 91 | 1002.4 |
| 20260508001549 | 9 | 178 | 4.8 | 12.9 | 0.00 | 2.13 | 2.13 | 91 | 1002.6 |
| 20260508000048 | 9 | 168 | 4.8 | 11.3 | 0.00 | 2.13 | 2.13 | 91 | 1002.8 |
| 20260507234558 | 9 | 168 | 4.8 | 12.9 | 0.00 | 2.13 | 2.13 | 91 | 1002.3 |
| 20260507233047 | 9 | 179 | 8.0 | 16.1 | 0.00 | 2.13 | 2.13 | 91 | 1002.8 |
| 20260507231550 | 9 | 158 | 4.8 | 11.3 | 0.00 | 2.13 | 2.13 | 91 | 1002.9 |
| 20260507230050 | 9 | 217 | 4.8 | 11.3 | 0.00 | 2.13 | 2.13 | 91 | 1002.9 |
| 20260507224549 | 9 | 182 | 1.6 | 8.0 | 0.00 | 2.13 | 2.13 | 91 | 1003.0 |
| 20260507223051 | 9 | 217 | 4.8 | 12.9 | 0.00 | 2.13 | 2.13 | 91 | 1003.2 |
| 20260507221548 | 9 | 198 | 8.0 | 22.5 | 0.00 | 2.13 | 2.13 | 91 | 1003.2 |
| 20260507220044 | 10 | 183 | 8.0 | 24.1 | 0.00 | 2.13 | 2.13 | 91 | 1003.0 |
| 20260507214542 | 9 | 164 | 6.4 | 27.4 | 0.08 | 2.13 | 2.13 | 91 | 1002.6 |
| 20260507213041 | 9 | 177 | 11.3 | 24.1 | 0.23 | 2.13 | 2.13 | 91 | 1002.5 |
| 20260507211538 | 9 | 191 | 11.3 | 25.7 | 0.51 | 2.13 | 2.13 | 90 | 1002.1 |
| 20260507210034 | 9 | 185 | 6.4 | 20.9 | 0.71 | 2.13 | 2.13 | 90 | 1003.3 |
| 20260507204531 | 10 | 144 | 9.7 | 24.1 | 0.94 | 2.06 | 2.06 | 90 | 1003.7 |